Список аэропортов
Фактическая погода:

18 октября, 11:00
Температура: +21°C (+21.0*)
Ветер: северный 4 м/с
Давление: *760 мм
неб. 2190 м
неб. облачность
3600 м
разорв. обл.
6900 м
Время (МСК)Темп. СВетерВлажностьДавлениеОблачностьОсадки
09:00+20СВ, 3 м/с65%1015 гПас прояснениями
10:00+20СВ, 3 м/с65%1015 гПаоблачно
11:00+21СВ, 3 м/с61%1015 гПас прояснениями
12:00+22СВ, 4 м/с59%1015 гПас прояснениями
13:00+22В, 7 м/с60%1015 гПас прояснениями
14:00+22В, 9 м/с60%1014 гПас прояснениями
15:00+22В, 9 м/с62%1014 гПас прояснениями
16:00+22В, 9 м/с63%1014 гПас прояснениями
17:00+22В, 9 м/с63%1013 гПамалооблачно
18:00+22В, 8 м/с64%1013 гПаясно
19:00+22В, 7 м/с62%1013 гПаясно
20:00+22В, 5 м/с62%1014 гПаясно
21:00+22СВ, 4 м/с63%1014 гПамалооблачно
22:00+22СВ, 2 м/с66%1015 гПас прояснениями
23:00+21С, 2 м/с69%1015 гПас прояснениями
19 октября
00:00+20С, 3 м/с70%1016 гПаясно
01:00+20С, 3 м/с65%1016 гПаясно
02:00+20С, 4 м/с63%1016 гПаясно
03:00+20С, 3 м/с62%1016 гПамалооблачно
04:00+19С, 3 м/с62%1016 гПас прояснениями
05:00+19С, 4 м/с62%1016 гПас прояснениями
06:00+19С, 3 м/с62%1016 гПаоблачно
07:00+19С, 4 м/с62%1016 гПаоблачно
08:00+19СЗ, 4 м/с62%1017 гПаоблачно
09:00+19СЗ, 3 м/с62%1017 гПас прояснениями
10:00+19СЗ, 4 м/с62%1017 гПас прояснениями
11:00+21С, 3 м/с54%1018 гПаоблачно
12:00+22СВ, 3 м/с46%1018 гПаоблачно
13:00+23В, 4 м/с49%1018 гПаоблачно
14:00+23В, 5 м/с51%1018 гПаоблачно
15:00+23В, 6 м/с53%1018 гПаоблачно
16:00+23В, 5 м/с55%1018 гПаоблачно
17:00+23В, 3 м/с58%1018 гПаоблачно
18:00+23В, 2 м/с60%1018 гПаоблачно
19:00+22Штиль 63%1019 гПаоблачно
20:00+22СЗ, 1 м/с62%1019 гПаоблачно
21:00+22СЗ, 1 м/с62%1020 гПаоблачно
22:00+21С, 2 м/с65%1020 гПаоблачно
23:00+21С, 4 м/с65%1020 гПаоблачно
20 октября
00:00+20СЗ, 4 м/с63%1021 гПаоблачно
01:00+20СЗ, 4 м/с63%1022 гПаоблачно
02:00+20С, 5 м/с62%1022 гПас прояснениями
03:00+20С, 5 м/с61%1022 гПас прояснениями
04:00+20С, 5 м/с59%1023 гПамалооблачно
05:00+20С, 6 м/с57%1023 гПаясно
06:00+20С, 6 м/с57%1023 гПаясно
07:00+20С, 6 м/с56%1023 гПаясно
08:00+20С, 5 м/с55%1024 гПаясно
09:00+19С, 5 м/с55%1024 гПаясно